sat.trackr.live / text

‹ back to catalog

STARLINK-4356

NORAD 53224 · 2022-084AM

PAYLOAD ACTIVE UNKNOWN

§ Identity

Operator
Country
US
Launch date
2022-07-22
Launch site
AFWTR
Launch vehicle
Mass (kg)
RCS (m²)

Purposes: comms

External: N2YO · Heavens-Above · Gunter

§ Orbital elements

Epoch: 2026-05-25T03:50:47.529312Z

Period
95.64 min
Inclination
97.4468°
Eccentricity
0.0001181
Mean motion
15.05649908 rev/d
Perigee alt
548.7 km
Apogee alt
550.3 km
Semi-major
6,927.6 km
B*
8.8577e-6
RAAN
205.0618°
Arg perigee
126.6469°
Mean anomaly
233.4867°
Rev number
21,081

§ Raw data

STARLINK-43561 53224U 22084AM  26145.16027233  .00000069  00000+0  88577-5 0  99982 53224  97.4468 205.0618 0001181 126.6469 233.4867 15.05649908210815

JSON: /api/v1/satellites/53224 · /tle

For live sub-satellite position, see the globe view (requires WebGL).

§ Visibility from observer

Set your observer location to see the next 7 days of passes ≥ 10°. The values pass through the URL so the page stays shareable.

No JS? Fill the form by hand. The geolocation button needs JavaScript.